Flag for New Zealand Weather past 2 weeks in Auckland, New Zealand

Now
55 °F

Overcast.


Feels Like: 54 °F
Forecast: 52 / 60 °F
Wind: 6 mph from Northeast

Location: Auckland Airport

Current Time: Jul 29, 2014 at 6:44:42 PM

Latest Report: Jul 29, 2014 at 6:00 PM


Visibility: N/A

Pressure: 30.18 "Hg

Humidity: 82%

Dew point: 50 °F

Location of AucklandLocation

Historic Weather in Auckland — Graph

°F

Auckland temperature yesterday

Maximum temperature yesterday: 57 °F (at 3:30 PM)
Minimum temperature yesterday: 37 °F (at 5:30 AM)
Average temperature yesterday: 45 °F

Past Weeks' High & Low Weather Summary

 TemperatureHumidityPressure
High61 °F (Jul 29, 12:00 PM)100% (Jul 14, 6:30 PM)30.27 "Hg (Jul 14, 6:30 PM)
Low36 °F (Jul 18, 8:00 AM)51% (Jul 28, 3:30 PM)29.27 "Hg (Jul 20, 3:30 AM)
Average49 °F84%29.88 "Hg
* Reported Jul 14 5:00 PM — Jul 29 5:30 PM, Auckland, Weather by CustomWeather, © 2014

Note: Actual official high and low records may vary slightly from our data, if they occured in-between our weather recording intervals... More about our weather records

Advertising

Auckland weather history for previous 24 hours

 ConditionsComfort  
Time TempWeatherWind HumidityBarometerVisibility
5:30 PM
Jul 29
57 °FPassing clouds.8 mph77%30.18 "HgN/A
5:00 PM57 °FSprinkles. Mostly cloudy.8 mph77%30.18 "HgN/A
4:30 PM59 °FPartly sunny.9 mph72%30.18 "HgN/A
4:00 PM59 °FBroken clouds.10 mph72%30.18 "HgN/A
3:30 PM59 °FBroken clouds.9 mph68%30.18 "HgN/A
3:00 PM61 °FCool.8 mph63%30.18 "HgN/A
2:30 PM59 °FCool.10 mph68%30.18 "HgN/A
2:00 PM59 °FPassing clouds.9 mph68%30.18 "HgN/A
1:30 PM59 °FCool.9 mph68%30.18 "HgN/A
1:00 PM59 °FCool.10 mph68%30.21 "HgN/A
12:30 PM59 °FCool.9 mph68%30.21 "HgN/A
12:00 PM61 °FCool.10 mph63%30.21 "HgN/A
11:30 AM59 °FCool.12 mph68%30.24 "HgN/A
11:00 AM57 °FCool.12 mph67%30.24 "HgN/A
10:30 AM57 °FCool.9 mph72%30.24 "HgN/A
10:00 AM55 °FCool.7 mph82%30.24 "HgN/A
9:30 AM52 °FCool.2 mph94%30.24 "HgN/A
8:30 AM45 °FQuite cool.2 mph100%30.24 "HgN/A
8:00 AM43 °FQuite cool.2 mph100%30.24 "HgN/A
7:30 AM43 °FQuite cool.3 mph93%30.21 "HgN/A
7:00 AM41 °FQuite cool.3 mph100%30.21 "HgN/A
6:30 AM41 °FQuite cool.1 mph100%30.21 "HgN/A
6:00 AM41 °FQuite cool.2 mph100%30.21 "HgN/A
5:30 AM43 °FQuite cool.2 mph100%30.21 "HgN/A
5:00 AM43 °FPassing clouds.1 mph100%30.21 "HgN/A
4:30 AM45 °FQuite cool.No wind100%30.21 "HgN/A
4:00 AM45 °FPassing clouds.1 mph93%30.24 "HgN/A
3:30 AM45 °FPassing clouds.2 mph93%30.24 "HgN/A
3:00 AM43 °FPassing clouds.3 mph100%30.24 "HgN/A
2:30 AM45 °FPassing clouds.2 mph93%30.24 "HgN/A
2:00 AM43 °FPassing clouds.1 mph100%30.24 "Hg5 mi
1:30 AM43 °FQuite cool.1 mph100%30.24 "HgN/A
1:00 AM45 °FQuite cool.2 mph87%30.24 "HgN/A
12:30 AM43 °FQuite cool.3 mph93%30.24 "HgN/A
12:00 AM45 °FQuite cool.No wind93%30.27 "HgN/A
11:30 PM
Jul 28
45 °FQuite cool.1 mph93%30.27 "HgN/A
11:00 PM45 °FQuite cool.1 mph93%30.27 "HgN/A
10:30 PM45 °FPassing clouds.No wind93%30.24 "HgN/A
10:00 PM45 °FPassing clouds.1 mph93%30.24 "HgN/A
9:30 PM45 °FPassing clouds.2 mph93%30.24 "HgN/A
9:00 PM45 °FQuite cool.2 mph87%30.24 "HgN/A
8:30 PM45 °FQuite cool.3 mph93%30.24 "HgN/A
8:00 PM46 °FPassing clouds.2 mph87%30.24 "HgN/A
7:30 PM46 °FPassing clouds.3 mph87%30.24 "HgN/A
7:00 PM46 °FPassing clouds.3 mph87%30.24 "HgN/A
6:30 PM48 °FCool.3 mph82%30.24 "HgN/A
6:00 PM50 °FCool.5 mph71%30.21 "HgN/A
Weather by CustomWeather, © 2014

See weather overviewHow to use our weather pages